• In Hungary
  • List of Countries
  • For 7 days
  • Water Temperature
  • Satellite Maps
  • Weather Map
  • News
  • Weather Widgets
  • user-avatar
    Login

    Hourly Weather Mansa

    Today, 26 September, Wednesday

    Time Temperature Precipitation Wind Pressure Humidity
    00:00 +25°C° 0 mm 1 mps 660 mmHg 26%
    01:00 +24°C° 0 mm 2 mps 659 mmHg 27%
    02:00 +23°C° 0 mm 1 mps 659 mmHg 32%
    03:00 +21°C° 0 mm 2 mps 659 mmHg 34%
    04:00 +21°C° 0 mm 2 mps 659 mmHg 36%
    05:00 +20°C° 0 mm 2 mps 659 mmHg 38%
    06:00 +23°C° 0 mm 2 mps 660 mmHg 38%
    07:00 +24°C° 0 mm 3 mps 661 mmHg 37%
    08:00 +26°C° 0 mm 3 mps 662 mmHg 36%
    09:00 +29°C° 0 mm 3 mps 662 mmHg 30%
    10:00 +33°C° 0 mm 3 mps 662 mmHg 24%
    11:00 +36°C° 0 mm 2 mps 663 mmHg 18%
    12:00 +37°C° 0 mm 2 mps 662 mmHg 16%
    13:00 +38°C° 0 mm 2 mps 661 mmHg 14%
    14:00 +38°C° 0 mm 2 mps 661 mmHg 12%
    15:00 +38°C° 0 mm 2 mps 660 mmHg 13%
    16:00 +37°C° 0 mm 2 mps 659 mmHg 13%
    17:00 +36°C° 0 mm 3 mps 659 mmHg 14%
    18:00 +34°C° 0 mm 2 mps 659 mmHg 16%
    19:00 +30°C° 0 mm 2 mps 659 mmHg 18%
    20:00 +28°C° 0 mm 1 mps 659 mmHg 20%
    21:00 +28°C° 0 mm 1 mps 659 mmHg 20%
    22:00 +27°C° 0 mm 1 mps 659 mmHg 21%
    23:00 +27°C° 0 mm 1 mps 660 mmHg 22%

    Tomorrow, 27 September, Thursday

    Time Temperature Precipitation Wind Pressure Humidity
    00:00 +26°C° 0 mm 2 mps 659 mmHg 23%
    01:00 +26°C° 0 mm 2 mps 659 mmHg 24%
    02:00 +25°C° 0 mm 2 mps 659 mmHg 26%
    03:00 +25°C° 0 mm 3 mps 659 mmHg 29%
    04:00 +24°C° 0 mm 3 mps 659 mmHg 32%
    05:00 +24°C° 0 mm 3 mps 659 mmHg 36%
    06:00 +25°C° 0 mm 3 mps 660 mmHg 35%
    07:00 +27°C° 0 mm 4 mps 660 mmHg 34%
    08:00 +28°C° 0 mm 4 mps 661 mmHg 33%
    09:00 +32°C° 0 mm 4 mps 661 mmHg 28%
    10:00 +34°C° 0 mm 4 mps 662 mmHg 24%
    11:00 +36°C° 0 mm 4 mps 662 mmHg 19%
    12:00 +37°C° 0 mm 3 mps 661 mmHg 17%
    13:00 +38°C° 0 mm 3 mps 660 mmHg 15%
    14:00 +39°C° 0 mm 3 mps 659 mmHg 14%
    15:00 +38°C° 0 mm 3 mps 659 mmHg 14%
    16:00 +37°C° 0 mm 3 mps 659 mmHg 14%
    17:00 +37°C° 0 mm 3 mps 658 mmHg 15%
    18:00 +35°C° 0 mm 2 mps 658 mmHg 17%
    19:00 +32°C° 0 mm 2 mps 659 mmHg 19%
    20:00 +30°C° 0 mm 1 mps 659 mmHg 21%
    21:00 +30°C° 0 mm 2 mps 659 mmHg 22%
    22:00 +30°C° 0 mm 2 mps 660 mmHg 22%
    23:00 +30°C° 0 mm 3 mps 660 mmHg 23%

    Day after tomorrow, 28 September, Friday

    Time Temperature Precipitation Wind Pressure Humidity
    00:00 +29°C° 0 mm 3 mps 660 mmHg 25%
    01:00 +28°C° 0 mm 4 mps 659 mmHg 28%
    02:00 +28°C° 0 mm 4 mps 659 mmHg 30%
    03:00 +27°C° 0 mm 4 mps 659 mmHg 32%
    04:00 +26°C° 0 mm 4 mps 659 mmHg 34%
    05:00 +26°C° 0 mm 4 mps 659 mmHg 36%
    06:00 +26°C° 0 mm 4 mps 660 mmHg 35%
    07:00 +27°C° 0 mm 4 mps 660 mmHg 33%
    08:00 +28°C° 0 mm 5 mps 661 mmHg 32%
    09:00 +30°C° 0 mm 4 mps 661 mmHg 28%
    10:00 +34°C° 0 mm 4 mps 661 mmHg 24%
    11:00 +36°C° 0 mm 4 mps 662 mmHg 20%
    12:00 +37°C° 0 mm 4 mps 661 mmHg 18%
    13:00 +38°C° 0 mm 3 mps 660 mmHg 16%
    14:00 +39°C° 0 mm 3 mps 659 mmHg 14%
    15:00 +38°C° 0 mm 3 mps 659 mmHg 15%
    16:00 +37°C° 0 mm 2 mps 658 mmHg 15%
    17:00 +37°C° 0 mm 2 mps 658 mmHg 16%
    18:00 +35°C° 0 mm 2 mps 658 mmHg 18%
    19:00 +32°C° 0 mm 1 mps 658 mmHg 20%
    20:00 +30°C° 0 mm 1 mps 659 mmHg 22%
    21:00 +29°C° 0 mm 1 mps 659 mmHg 22%
    22:00 +29°C° 0 mm 2 mps 659 mmHg 22%
    23:00 +29°C° 0 mm 2 mps 659 mmHg 22%

    29 September, Saturday

    Time Temperature Precipitation Wind Pressure Humidity
    00:00 +28°C° 0 mm 3 mps 659 mmHg 23%
    01:00 +27°C° 0 mm 3 mps 658 mmHg 24%
    02:00 +27°C° 0 mm 4 mps 658 mmHg 24%
    03:00 +26°C° 0 mm 3 mps 658 mmHg 25%
    04:00 +25°C° 0 mm 3 mps 658 mmHg 26%
    05:00 +24°C° 0 mm 3 mps 659 mmHg 28%
    06:00 +26°C° 0 mm 3 mps 660 mmHg 26%
    07:00 +27°C° 0 mm 4 mps 661 mmHg 25%
    08:00 +28°C° 0 mm 4 mps 661 mmHg 23%
    09:00 +32°C° 0 mm 4 mps 662 mmHg 21%
    10:00 +34°C° 0 mm 3 mps 662 mmHg 18%
    11:00 +36°C° 0 mm 3 mps 662 mmHg 15%
    12:00 +37°C° 0 mm 3 mps 661 mmHg 14%
    13:00 +38°C° 0 mm 3 mps 660 mmHg 13%
    14:00 +39°C° 0 mm 2 mps 659 mmHg 12%
    15:00 +38°C° 0 mm 2 mps 659 mmHg 13%
    16:00 +37°C° 0 mm 2 mps 659 mmHg 14%
    17:00 +36°C° 0 mm 2 mps 659 mmHg 15%
    18:00 +34°C° 0 mm 2 mps 659 mmHg 17%
    19:00 +32°C° 0 mm 1 mps 659 mmHg 19%
    20:00 +30°C° 0 mm 1 mps 659 mmHg 21%
    21:00 +30°C° 0 mm 2 mps 660 mmHg 20%
    22:00 +30°C° 0 mm 3 mps 660 mmHg 20%
    23:00 +30°C° 0 mm 3 mps 660 mmHg 19%

    30 September, Sunday

    Time Temperature Precipitation Wind Pressure Humidity
    00:00 +29°C° 0 mm 4 mps 660 mmHg 22%
    01:00 +28°C° 0 mm 4 mps 660 mmHg 24%
    02:00 +27°C° 0 mm 4 mps 659 mmHg 27%
    03:00 +26°C° 0 mm 4 mps 660 mmHg 29%
    04:00 +25°C° 0 mm 4 mps 660 mmHg 31%
    05:00 +25°C° 0 mm 4 mps 660 mmHg 34%
    06:00 +26°C° 0 mm 5 mps 661 mmHg 33%
    07:00 +27°C° 0 mm 6 mps 662 mmHg 33%
    08:00 +28°C° 0 mm 7 mps 663 mmHg 32%
    09:00 +29°C° 0 mm 6 mps 662 mmHg 29%
    10:00 +32°C° 0 mm 6 mps 662 mmHg 26%
    11:00 +34°C° 0 mm 5 mps 662 mmHg 23%
    12:00 +34°C° 0 mm 5 mps 661 mmHg 21%
    13:00 +35°C° 0 mm 5 mps 661 mmHg 19%
    14:00 +36°C° 0 mm 4 mps 660 mmHg 17%
    15:00 +36°C° 0 mm 4 mps 660 mmHg 18%
    16:00 +35°C° 0 mm 4 mps 660 mmHg 18%
    17:00 +34°C° 0 mm 4 mps 659 mmHg 18%
    18:00 +33°C° 0 mm 4 mps 660 mmHg 20%
    19:00 +32°C° 0 mm 4 mps 661 mmHg 22%
    20:00 +30°C° 0 mm 4 mps 661 mmHg 23%
    21:00 +29°C° 0 mm 5 mps 661 mmHg 27%
    22:00 +28°C° 0 mm 5 mps 661 mmHg 31%
    23:00 +27°C° 0 mm 6 mps 661 mmHg 35%

    1 October, Monday

    Time Temperature Precipitation Wind Pressure Humidity
    00:00 +26°C° 0 mm 5 mps 661 mmHg 38%
    01:00 +25°C° 0 mm 5 mps 660 mmHg 40%
    02:00 +23°C° 0 mm 5 mps 660 mmHg 43%
    03:00 +22°C° 0 mm 5 mps 660 mmHg 46%
    04:00 +22°C° 0 mm 5 mps 660 mmHg 49%
    05:00 +21°C° 0 mm 4 mps 660 mmHg 52%
    06:00 +22°C° 0 mm 5 mps 661 mmHg 52%
    07:00 +22°C° 0 mm 5 mps 662 mmHg 52%
    08:00 +23°C° 0 mm 6 mps 662 mmHg 52%
    09:00 +26°C° 0 mm 5 mps 662 mmHg 46%
    10:00 +27°C° 0 mm 5 mps 662 mmHg 40%
    11:00 +29°C° 0 mm 5 mps 662 mmHg 34%
    12:00 +30°C° 0 mm 4 mps 661 mmHg 30%
    13:00 +33°C° 0 mm 4 mps 661 mmHg 26%
    14:00 +34°C° 0 mm 4 mps 660 mmHg 23%
    15:00 +33°C° 0 mm 4 mps 660 mmHg 23%
    16:00 +33°C° 0 mm 4 mps 660 mmHg 24%
    17:00 +32°C° 0 mm 4 mps 660 mmHg 24%
    18:00 +30°C° 0 mm 4 mps 660 mmHg 27%
    19:00 +29°C° 0 mm 4 mps 660 mmHg 29%
    20:00 +27°C° 0 mm 3 mps 661 mmHg 32%
    21:00 +27°C° 0 mm 4 mps 661 mmHg 34%
    22:00 +26°C° 0 mm 4 mps 661 mmHg 35%
    23:00 +25°C° 0 mm 4 mps 661 mmHg 37%
    Show more